OBJECT BQ (43820 NORAD) Tracking and Keplerian Element Data

This shows tracking and keplerian element data for the satellite.

Feedback or suggestion? Click here.




ElementValue
Catalog43820
NameOBJECT BQ
Epoch Orbit612
Epoch Day17.78730114
Epoch Year2019
RAAN91.4892
Inclination97.758
Eccentricity0.0014039
Argument of Perigee106.1224
Mean Anonmoly254.1544
Mean Motion14.95301316
Decay Rate-1.39E-06
L11 43820U 18099BQ 19017.78730114 -.00000139 00000-0 -73452-5 0 9994
L22 43820 97.7580 91.4892 0014039 106.1224 254.1544 14.95301316 6128

Live tracking and technical data element details for OBJECT BQ (NORAD 43820). OBJECT BQ can be tracked NOW for your location showing map with azimuth and elevation plus other details from your city location.

Track the satellite on the map from your city or location and see movement details for azimuth, elevation, latitude, longitude, range, height, and movement on the map or in text.







IsCatalogInMostPopularTable: catalog: 43820, numindb: 24
Update: records affected: 1



GetName: 43820 OBJECT BQ

Hit Count: updated at: Wed, 23 Jan 2019 02:40:22 GMT